Location: Carrières
(48.9495°N, 2.0407°E)
Time: 11:19:51
(UTC+00:00)

Cosmos 2278 Rocket - Visible Passes

Search period start: 02 October 2023 00:00
Search period end: 12 October 2023 00:00
Orbit: 839 x 846 km, 71.0° (Epoch: 01 October)

Date Brightness Start Highest point End Pass type
(mag) Time Alt. Az. Time Alt. Az. Time Alt. Az.
02 Oct 2.6 19:00:35 10° NNW 19:06:13 64° WSW 19:11:47 10° SSE visible
02 Oct 5.1 20:49:02 10° W 20:49:07 10° W 20:49:13 10° W visible
03 Oct 2.6 18:45:54 10° NNW 18:51:32 66° WSW 18:57:07 10° SSE visible
03 Oct 5.1 20:33:21 10° W 20:34:28 11° W 20:35:37 10° WSW visible
04 Oct 2.5 18:31:12 10° NNW 18:36:52 69° WSW 18:42:28 10° SSE visible
04 Oct 5.1 20:18:15 10° WNW 20:19:51 11° W 20:21:27 10° WSW visible
05 Oct 2.5 18:16:31 10° NNW 18:22:11 72° WSW 18:27:48 10° SSE visible
05 Oct 5.1 20:03:15 10° WNW 20:05:12 12° W 20:07:09 10° WSW visible
06 Oct 2.5 18:01:49 10° NNW 18:07:30 75° WSW 18:13:08 10° SSE visible
06 Oct 5.1 19:48:19 10° WNW 19:50:34 12° W 19:52:48 10° WSW visible
07 Oct 2.5 17:47:09 10° NNW 17:52:50 78° WSW 17:58:28 10° SSE visible
07 Oct 5.1 19:33:27 10° WNW 19:35:55 13° W 19:38:24 10° WSW visible
08 Oct 5.1 19:18:34 10° WNW 19:21:17 14° W 19:23:59 10° SW visible
09 Oct 5.1 19:03:44 10° WNW 19:06:39 14° W 19:09:33 10° SW visible
10 Oct 5.1 18:48:55 10° WNW 18:52:00 15° W 18:55:05 10° SW visible
11 Oct 5.2 18:34:06 10° WNW 18:37:21 16° W 18:40:37 10° SW visible
